Content
SEND FEEDBACK

Daily
Averages
Monthly
Summary
Canada

MONTREAL, QUEBEC


Home > North America > Canada > Quebec
Elevation: 118 feet     Latitude: 45 28N     Longitude: 073 45W

WEATHER
 
SELECT A DAY
Number of Records: 201,544;   Date Range: 1/1/95 - 10/24/14
 
SHARE

PRINT THIS DATA

[ ← Previous Day ]
WEATHER ALMANAC - MAY 21, 2013
[ Next Day → ]
[ °C ]   °F
Weather ElementAverageHighLow
Temperature60.3 °F66.2 °F (4:00 pm)57 °F (8:00 am)
Dewpoint53.4 °F55.4 °F (7:00 am)50 °F (4:00 am)
Humidity78 %94 % (7:00 am)60 % (5:00 pm)
Barometer29.92 in30.00 in (12:00 pm)29.80 in (9:00 pm)
Wind Speed13.2 mph20.7 mph (6:43 pm)
Wind Gust27.6 mph (6:43 pm)
Weather ElementAverage
Visibility14.6 mi
Wind DirectionENE (58.2 °)

Weather ElementTotal
Precipitation---
Heating Degree Days3.4 (Base 65)
Growing Degree Days11.6 (Base 50)
Averaged from 34 records on May 21, 2013
WEATHER CONDITIONS BREAKOUT
WIND DIRECTION BREAKOUT
WEATHER BY HOUR - MAY 21, 2013
[ °C ]   °F
Local TimeTemperatureDewpointHumidityBarometerVisibilityWind DirectionWind SpeedGust SpeedPrecipitationEventsConditions
1:00 AM62.6 °F51.8 °F68 %29.96 in15.0 miESE (110°)8.1 mphMostly Cloudy
2:00 AM62.0 °F53.0 °F64 %29.92 in15.0 miESE (110°)6.9 mphOvercast
2:00 AM62.6 °F53.6 °F72 %29.92 in15.0 miESE (110°)5.8 mphOvercast
3:00 AM62.6 °F51.8 °F68 %29.91 in15.0 miNE (40°)9.2 mphOvercast
4:00 AM62.6 °F50.0 °F63 %29.88 in15.0 miEast (80°)11.5 mphOvercast
4:10 AM62.6 °F51.8 °F68 %29.88 in10.0 miEast (100°)9.2 mphRainLight Rain Showers
5:00 AM59.0 °F53.6 °F82 %29.85 in15.0 miEast (90°)10.4 mphRainLight Rain Showers
6:00 AM57.2 °F53.6 °F88 %29.86 in15.0 miENE (60°)12.7 mphRainLight Rain Showers
7:00 AM57.2 °F55.4 °F94 %29.89 in10.0 miNNE (20°)11.5 mphRainLight Rain Showers
8:00 AM57.0 °F55.0 °F91 %29.92 in15.0 miNNE (30°)17.3 mphRainLight Rain
8:00 AM57.2 °F55.4 °F94 %29.92 in15.0 miNNE (20°)16.1 mph24.2 mphRainLight Rain
8:55 AM57.2 °F53.6 °F88 %29.94 in15.0 miNNE (30°)18.4 mphLight Drizzle
9:00 AM57.2 °F53.6 °F88 %29.94 in15.0 miNE (40°)17.3 mph24.2 mphLight Drizzle
9:28 AM57.2 °F53.6 °F88 %29.97 in15.0 miNNE (30°)16.1 mph26.5 mphLight Drizzle
9:48 AM57.2 °F53.6 °F88 %29.98 in15.0 miNNE (30°)17.3 mphOvercast
10:00 AM57.2 °F53.6 °F88 %29.99 in15.0 miNNE (30°)16.1 mphOvercast
11:00 AM57.2 °F53.6 °F88 %29.99 in15.0 miNNE (30°)16.1 mph25.3 mphOvercast
12:00 PM59.0 °F53.6 °F82 %30.00 in15.0 miNE (40°)17.3 mph24.2 mphOvercast
1:00 PM60.8 °F53.6 °F77 %29.99 in15.0 miNE (50°)13.8 mph21.9 mphOvercast
2:00 PM62.0 °F52.0 °F61 %29.99 in15.0 miENE (60°)12.7 mphPartly Cloudy
2:00 PM62.6 °F51.8 °F68 %29.98 in15.0 miEast (80°)13.8 mphOvercast
3:00 PM64.4 °F51.8 °F64 %29.96 in15.0 miENE (60°)15.0 mphMostly Cloudy
4:00 PM66.2 °F53.6 °F64 %29.93 in15.0 miENE (70°)9.2 mphOvercast
5:00 PM66.2 °F51.8 °F60 %29.93 in15.0 miENE (60°)15.0 mphOvercast
6:00 PM64.4 °F51.8 °F64 %29.94 in15.0 miENE (70°)15.0 mphOvercast
6:43 PM64.4 °F51.8 °F64 %29.90 in15.0 miNE (40°)20.7 mph27.6 mphRainLight Rain Showers
7:00 PM62.6 °F51.8 °F68 %29.91 in12.0 miNE (50°)16.1 mph26.5 mphRainLight Rain Showers
8:00 PM60.0 °F55.0 °F77 %29.91 in15.0 miEast (90°)11.5 mphRainLight Rain
8:00 PM60.8 °F55.4 °F82 %29.91 in15.0 miEast (100°)8.1 mphRainLight Rain
9:00 PM59.0 °F55.4 °F88 %29.80 in15.0 miEast (80°)17.3 mph26.5 mphRainLight Rain Showers
9:17 PM59.0 °F53.6 °F82 %29.85 in15.0 miNE (40°)13.8 mphOvercast
10:00 PM59.0 °F55.4 °F88 %29.85 in15.0 miEast (80°)10.4 mphOvercast
11:00 PM57.2 °F53.6 °F88 %29.82 in15.0 miNNE (30°)10.4 mphOvercast
11:35 PM57.2 °F55.4 °F94 %29.81 in15.0 miNNE (20°)9.2 mphRainLight Rain Showers
Hourly data recorded from CYUL, located miles away from Montreal, Quebec







STORIES FROM OUR PARTNERS